Diretta Meteo Rimini, Italiadomenica 21 luglio ore 18:50

Mappa
Sereno 28 °C Sereno 24 Ore: T.min 20 T.max 30
Ponente Est Km/h 14.8 Punto di rugiada: 20 °C Umidità: 61% Visibilità: 10 Km
Il sole sorge alle: 05:44 Il sole tramonta alle: 20:47
21 Luglio 2019 18:50 tempo osservato: Sereno Sereno 28 61 1018 vento: Nord E 14.8
21 Luglio 2019 17:50 tempo osservato: Sereno Sereno 28 61 1018 vento: Nord E 16.7
21 Luglio 2019 17:20 tempo osservato: Sereno Sereno 28 61 1018 vento: Nord E 16.7
21 Luglio 2019 16:20 tempo osservato: Sereno Sereno 29 62 1018 vento: Nord E/NE 14.8
21 Luglio 2019 15:50 tempo osservato: Sereno Sereno 29 62 1018 vento: Nord NE 11.1
21 Luglio 2019 15:20 tempo osservato: Sereno Sereno 29 58 1018 vento: Nord E/NE 11.1
21 Luglio 2019 14:50 tempo osservato: Sereno Sereno 29 54 1019 vento: Nord NE 11.1
21 Luglio 2019 14:20 tempo osservato: Sereno Sereno 30 48 1019 vento: Nord N 13
21 Luglio 2019 13:50 tempo osservato: Sereno Sereno 30 48 1019 vento: Nord N 13
21 Luglio 2019 13:20 tempo osservato: Sereno Sereno 29 48 1019 vento: Nord N/NE 11.1
21 Luglio 2019 12:50 tempo osservato: Sereno Sereno 29 45 1019 vento: Nord N 11.1
21 Luglio 2019 12:20 tempo osservato: Sereno Sereno 29 48 1019 vento: Nord N 13
21 Luglio 2019 11:50 tempo osservato: Sereno Sereno 28 48 1019 vento: Nord N/NE 11.1
21 Luglio 2019 11:20 tempo osservato: Sereno Sereno 29 39 1019 vento: Nord NE 9.3
21 Luglio 2019 10:50 tempo osservato: Sereno Sereno 28 45 1019 vento: Nord E/NE 7.4
21 Luglio 2019 10:20 tempo osservato: Sereno Sereno 27 54 1019 vento: Nord NE 7.4
21 Luglio 2019 09:50 tempo osservato: Sereno Sereno 27 54 1019 vento: Nord NE 9.3
21 Luglio 2019 09:20 tempo osservato: Sereno Sereno 27 57 1019 vento: Nord N 3.7
21 Luglio 2019 08:50 tempo osservato: Sereno Sereno 27 57 1018 vento: Nord N 1.8
21 Luglio 2019 08:20 tempo osservato: Sereno Sereno 25 57 1018 vento: Nord N 5.5
21 Luglio 2019 07:20 tempo osservato: Sereno Sereno 21 77 1018 vento: Nord N 1.8
21 Luglio 2019 06:50 tempo osservato: Sereno Sereno 21 77 1018 vento: Nord N 5.5
21 Luglio 2019 06:20 tempo osservato: Sereno Sereno 21 73 1018 vento: Nord N 3.7
21 Luglio 2019 05:50 tempo osservato: Sereno Sereno 20 82 1018 vento: Nord N 5.5
21 Luglio 2019 05:20 tempo osservato: Sereno Sereno 20 82 1018 vento: Nord N 3.7
21 Luglio 2019 04:50 tempo osservato: Sereno Sereno 20 82 1018 vento: Nord N 5.5
21 Luglio 2019 04:20 tempo osservato: Sereno Sereno 20 82 1018 vento: Nord N 5.5
21 Luglio 2019 03:50 tempo osservato: Sereno Sereno 20 88 1018 vento: Nord N 5.5
21 Luglio 2019 03:20 tempo osservato: Sereno Sereno 20 88 1018 vento: Nord N 5.5
21 Luglio 2019 02:50 tempo osservato: Sereno Sereno 21 82 1018 vento: Nord N 3.7
21 Luglio 2019 02:20 tempo osservato: Sereno Sereno 22 78 1018 vento: Nord N 5.5
21 Luglio 2019 01:50 tempo osservato: Sereno Sereno 21 82 1018 vento: Nord N 1.8
21 Luglio 2019 01:20 tempo osservato: Sereno Sereno 22 83 1018 vento: Nord N 3.7
21 Luglio 2019 00:50 tempo osservato: Sereno Sereno 22 83 1018 vento: Nord N 3.7
21 Luglio 2019 00:20 tempo osservato: Sereno Sereno 23 78 1018 vento: Nord N 5.5
20 Luglio 2019 23:50 tempo osservato: Sereno Sereno 23 78 1018 vento: Nord N 1.8
20 Luglio 2019 23:20 tempo osservato: Sereno Sereno 23 78 1018 vento: Nord N 3.7
20 Luglio 2019 22:50 tempo osservato: Sereno Sereno 24 73 1018 vento: Nord N 3.7
20 Luglio 2019 22:20 tempo osservato: Sereno Sereno 24 73 1017 vento: Nord N 3.7
20 Luglio 2019 21:50 tempo osservato: Sereno Sereno 25 69 1017 vento: Nord N 5.5
20 Luglio 2019 21:20 tempo osservato: Sereno Sereno 27 61 1017 vento: Nord SE 7.4
20 Luglio 2019 20:50 tempo osservato: Sereno Sereno 26 78 1017 vento: Nord E 7.4
20 Luglio 2019 20:20 tempo osservato: Sereno Sereno 27 74 1017 vento: Nord E 7.4